Location: Alafon
(8.4500°N, 4.2333°E)
Time: 20:38:43
(UTC+00:00)

Vanguard 2 - Pass Details

Date: 10 August 2021
Orbit: 553 x 2937 km, 32.9° (Epoch: 27 September)

Event Time Altitude Azimuth Distance (km) Brightness Sun altitude
Rises 09:06:11 0° 292° (WNW) 3,439 10.6 49.8°
Reaches altitude 10° 09:08:19 10° 287° (WNW) 2,711 10.1 50.3°
Maximum altitude 09:14:47 54° 211° (SSW) 1,589 9.5 51.8°
Drops below altitude 10° 09:25:41 10° 137° (SE) 4,454 11.8 54.4°
Sets 09:30:15 0° 133° (SE) 5,835 12.3 55.5°
